DELTA 1 DEB, 12536

Orbit data source: Space-Track

DELTA 1 DEB, 12536 is space debris in LEO originally from a launch on Thu, 29 Jul 1976 UTC launched from the Air Force Western Test Range (AFWTR). Debris objects in space refer to the collection of defunct objects orbiting the Earth. Examples of debris include non-operational satellites, rocket bodies, and fragments generated from explosions, collisions, or faulty payload assembly.

Loading next visibility...
Identifier
12536, 1976-077DR
Orbit
LEO
Country
Flag of USUS
Related business
Manufacturer
Unknown
Mission
Spacecraft
Bus & Motor
Unknown
Mass
Unknown
Launch date (UTC)
1976-07-29 (49 years ago)
Launch vehicle
Unknown
Launch site
Air Force Western Test Range (AFWTR)
Object type
Payload
Rocket body
Debris
Shape & HBR
Unknown shape, 0.1 m
Radar Cross Section
Small (<0.1 m²)

Expand to show TLE details & history
Last TLE update: 13 hours ago

TLE from 13 hours ago
0 DELTA 1 DEB
1 12536U 76077DR  25289.07361737  .00005144  00000-0  55231-1 0  9995
2 12536 101.7832  48.9049 0546266 261.4847 279.5534 11.79456601 25086
Epoch: 2025-10-16T01:46Z
TLE epoch observation values (Epoch: 2025-10-16T01:46:00.540Z)
Latitude
5.00928°
Longitude
178.60677°
Altitude
1,726.162 km
Speed
7.036 km/s
True Right ascension
15h 19m 47s
True Declination
4° 58' 59"
Sunlit
Object was in daylight at epoch
Visualization orbit readout
Latitude
Unknown
Longitude
Unknown
Altitude
Unknown
Speed
Unknown
Apparent Right ascension
Unknown
Apparent Declination
Unknown
Sunlit
N/A
Visualization observer readout
Local Sidereal Time
09:11:01
Azimuth
Unknown
Elevation
Unknown
Doppler factor
Unknown
Orbital elements
Apogee altitude
2,217.005 km
Perigee altitude
1,326.598 km
Semi-major axis
8,149.939 km
Eccentricity
0.05463
Inclination
101.7832°
RAAN
48.9049°
Arg. of periapsis
261.4847°
True anomaly
273.32207°
Mean anomaly
279.5534°
Eccentric anomaly
276.4433°
Mean motion
2.94993 °/min
Orbital period
122.04 mins
BSTAR
0.055231
Loading maneuver chart data...
Computing Atmospheric mass density...
Loading historical data...
Loading historical data...
Loading historical data...
Loading historical data...
Loading historical data...
Loading historical data...
Loading historical data...

Documentation

Showing up to 5 results
|